GW4962 Weather Reports


time (UTC)temp
C
wind
direction
speed
KPH
gust
KPH
rain 1hr
cm
rain 24hr
cm
rain mn
cm
humidity
%
barometer
mb
20260906190044 21 105 1.6 14.5 0.00 0.38 0.38 95 1018.7
20260906184547 21 118 3.2 16.1 0.00 0.38 0.38 94 1018.4
20260906183045 23 165 6.4 19.3 0.05 0.38 0.38 88 1018.6
20260906181551 25 0 0.0 1.6 0.38 0.38 0.38 96 1018.3
20260906180053 25 0 0.0 1.6 0.38 0.38 0.38 98 1018.1
20260906174545 25 0 1.6 8.0 0.38 0.38 0.38 97 1018.1
20260906173051 25 265 0.0 6.4 0.30 0.30 0.30 97 1018.1
20260906171544 25 198 3.2 8.0 0.00 0.00 0.00 94 1018.6
20260906170043 25 250 3.2 9.7 0.00 0.00 0.00 95 1018.7
20260906164545 26 0 0.0 8.0 0.00 0.00 0.00 93 1018.5
20260906163044 26 0 1.6 9.7 0.00 0.00 0.00 93 1018.1
20260906161543 26 207 3.2 11.3 0.00 0.00 0.00 92 1017.7
20260906160044 26 208 1.6 11.3 0.00 0.00 0.00 92 1017.6
20260906154554 26 0 0.0 6.4 0.00 0.00 0.00 93 1017.5
20260906153045 25 208 0.0 4.8 0.00 0.00 0.00 96 1017.0
20260906151543 25 257 1.6 9.7 0.00 0.00 0.00 97 1017.3
20260906150049 25 143 0.0 3.2 0.00 0.00 0.00 98 1017.7
20260906144544 24 217 1.6 6.4 0.00 0.00 0.00 99 1017.7
20260906143100 24 201 1.6 8.0 0.00 0.00 0.00 99 1017.5
20260906141542 24 207 0.0 6.4 0.00 0.00 0.00 100 1017.5
20260906140047 23 142 1.6 9.7 0.00 0.00 0.00 100 1017.1
20260906134550 23 172 0.0 8.0 0.00 0.18 0.00 100 1017.0
20260906133050 23 0 1.6 9.7 0.00 0.18 0.00 100 1017.0
20260906131550 23 169 1.6 8.0 0.00 0.18 0.00 100 1017.0
20260906130047 23 169 1.6 6.4 0.00 0.18 0.00 100 1016.8
20260906124544 23 211 0.0 9.7 0.00 0.66 0.00 100 1016.8
20260906123048 23 196 0.0 6.4 0.00 0.66 0.00 100 1016.7
20260906121546 23 204 1.6 9.7 0.00 0.66 0.00 100 1016.7
20260906120047 23 201 0.0 6.4 0.00 0.66 0.00 100 1016.4
20260906114550 23 129 1.6 8.0 0.00 0.76 0.00 100 1016.6
20260906113049 23 106 1.6 8.0 0.00 0.76 0.00 100 1016.3
20260906111545 23 0 0.0 9.7 0.00 0.76 0.00 100 1016.1
20260906110044 22 0 0.0 4.8 0.00 0.76 0.00 100 1015.9
20260906104549 22 0 0.0 6.4 0.00 0.79 0.00 100 1016.0
20260906103045 22 0 0.0 4.8 0.00 0.79 0.00 100 1015.9
20260906101544 22 165 0.0 3.2 0.00 0.79 0.00 100 1015.9
20260906100044 22 0 0.0 3.2 0.00 0.79 0.00 100 1015.8
20260906094548 22 0 0.0 3.2 0.00 0.81 0.00 100 1015.9
20260906093046 23 0 0.0 1.6 0.00 0.81 0.00 100 1016.0
20260906091543 23 0 0.0 1.6 0.00 0.81 0.00 100 1016.1
20260906090049 23 0 0.0 4.8 0.00 0.81 0.00 100 1016.3
20260906084545 23 0 0.0 1.6 0.00 0.81 0.00 100 1016.5
20260906083049 23 0 0.0 6.4 0.00 0.81 0.00 100 1016.1
20260906081551 23 0 0.0 3.2 0.00 0.81 0.00 100 1016.0
20260906080041 23 0 0.0 3.2 0.00 0.81 0.00 100 1015.9
20260906074547 23 0 0.0 0.0 0.00 0.81 0.00 100 1015.8
20260906073045 22 0 0.0 4.8 0.00 0.81 0.00 100 1015.9
20260906071556 22 205 0.0 1.6 0.00 0.81 0.00 100 1015.9
20260906070044 22 0 0.0 1.6 0.00 0.81 0.00 99 1016.1
20260906064546 22 0 0.0 1.6 0.00 0.81 0.00 99 1016.3
20260906063045 22 166 0.0 1.6 0.00 0.81 0.00 99 1016.3
20260906061547 22 0 0.0 0.0 0.00 0.81 0.00 98 1016.3
20260906060044 22 0 0.0 0.0 0.00 0.81 0.00 98 1016.2
20260906054550 22 159 0.0 1.6 0.00 0.81 0.00 97 1016.3
20260906053045 22 0 0.0 1.6 0.00 0.81 0.00 96 1016.4
20260906051550 23 0 0.0 0.0 0.00 0.81 0.00 96 1016.3
20260906050113 23 0 0.0 3.2 0.00 0.81 0.00 96 1016.4
20260906044550 23 0 0.0 4.8 0.00 0.81 0.81 95 1016.3
20260906043048 23 0 0.0 3.2 0.00 0.81 0.81 94 1016.5
20260906041544 23 0 0.0 4.8 0.00 0.81 0.81 94 1016.6
20260906040049 23 96 0.0 6.4 0.00 0.81 0.81 93 1016.7
20260906034545 23 165 0.0 3.2 0.00 0.81 0.81 93 1016.7
20260906033045 23 0 0.0 6.4 0.00 0.81 0.81 92 1016.6
20260906031543 23 0 0.0 3.2 0.00 0.81 0.81 91 1016.5
20260906030052 23 0 0.0 3.2 0.00 0.81 0.81 90 1016.5
20260906024547 24 0 0.0 0.0 0.00 0.81 0.81 89 1016.3
20260906023044 24 0 0.0 8.0 0.00 0.81 0.81 88 1016.2
20260906021555 25 103 0.0 3.2 0.00 0.81 0.81 87 1016.3
20260906020048 25 0 1.6 6.4 0.00 0.81 0.81 86 1016.1
20260906014546 25 0 0.0 3.2 0.00 0.81 0.81 84 1015.9
20260906013044 26 190 0.0 4.8 0.00 0.81 0.81 83 1015.8
20260906011544 26 0 0.0 9.7 0.00 0.81 0.81 81 1015.7
20260906010044 26 0 1.6 6.4 0.00 0.81 0.81 79 1015.6
20260906004543 27 0 0.0 6.4 0.00 0.81 0.81 78 1015.4
20260906003050 27 89 1.6 11.3 0.00 0.81 0.81 77 1015.2
20260906001546 28 139 1.6 9.7 0.00 0.81 0.81 75 1015.2
20260906000044 28 85 1.6 17.7 0.00 0.81 0.81 73 1015.2
20260905234554 29 113 1.6 14.5 0.00 0.81 0.81 70 1015.1
20260905233044 30 236 3.2 12.9 0.00 0.81 0.81 66 1015.2
20260905231546 30 252 3.2 14.5 0.00 0.81 0.81 64 1015.1
20260905230050 31 213 3.2 14.5 0.00 0.81 0.81 63 1015.1
20260905224545 31 265 3.2 16.1 0.00 0.81 0.81 61 1014.9
20260905223047 31 260 4.8 16.1 0.00 0.81 0.81 59 1014.8
20260905221544 31 181 4.8 16.1 0.00 0.81 0.81 57 1014.7
20260905220044 32 204 3.2 12.9 0.00 0.81 0.81 56 1014.5
20260905214601 32 178 4.8 16.1 0.00 0.81 0.81 54 1014.5
20260905213046 32 166 1.6 11.3 0.00 0.81 0.81 57 1014.5
20260905211541 32 139 3.2 11.3 0.00 0.81 0.81 57 1014.7
20260905210048 32 179 1.6 11.3 0.00 0.81 0.81 58 1014.6
20260905204545 32 137 3.2 12.9 0.00 0.81 0.81 58 1014.8
20260905203046 31 128 3.2 12.9 0.00 0.81 0.81 61 1014.5
20260905201545 31 144 1.6 8.0 0.00 0.81 0.81 63 1014.4
20260905200052 31 163 3.2 8.0 0.00 0.81 0.81 63 1014.5
20260905194555 31 92 1.6 11.3 0.00 0.81 0.81 65 1014.7
20260905193044 30 262 3.2 11.3 0.00 0.81 0.81 68 1014.5
20260905191545 29 88 1.6 8.0 0.00 0.81 0.81 68 1014.4